Clearfield, PA

8:25 AM EST on November 23, 2017 (GMT -0500)
Clearfield-Lawrence

Weather History for KFIG - November, 2012

Change the Weather History Date:

Sunday, November 11, 2012

  Actual Average (KDUJ) Record (KDUJ)
Temperature  
Mean Temperature 51 °F -  
Max Temperature 69 °F 44 °F 68 °F (2012)
Min Temperature 33 °F 34 °F 9 °F (2017)
Degree Days  
Heating Degree Days 14    
Growing Degree Days 1 (Base 50)    
Moisture  
Dew Point 36 °F    
Average Humidity 63    
Maximum Humidity 100    
Minimum Humidity 30    
Precipitation  
Precipitation 0.00 in - - ()
Sea Level Pressure  
Sea Level Pressure 30.35 in    
Wind  
Wind Speed 4 mph (NE)    
Max Wind Speed 7 mph    
Max Gust Speed -    
Visibility 10 miles    
Events      
Averages and records for this station are not official NWS values.
T = Trace of Precipitation, MM = Missing Value Source: NWS Daily Summary

Daily Weather History Graph

Daily Weather History Graph

Search for Another Location

Airport or City:

Trip Planner

Search our weather history database for the weather conditions in past years. The results will help you decide how hot, cold, wet, or windy it might be!

Date:

Astronomy

Nov. 11, 2012 Rise Set
Actual Time 6:57 AM EST 4:57 PM EST
Civil Twilight 6:27 AM EST 5:27 PM EST
Nautical Twilight 5:54 AM EST 6:00 PM EST
Astronomical Twilight 5:22 AM EST 6:32 PM EST
Moon 4:07 AM EST (11/11) 3:21 PM EST (11/11)
Length of Visible Light 10h 59m
Length of Day
10h 00m
Waning Crescent, 7% of the Moon is Illuminated
Nov 11
Waning Crescent
Nov 13
New
Nov 20
First Quarter
Nov 28
Full
Dec 6
Last Quarter

Hourly Weather History & Observations

Time (EST) Temp. Windchill Dew Point Humidity Pressure Visibility Wind Dir Wind Speed Gust Speed Precip Events Conditions
12:54 AM 42.1 °F 39.2 °F 37.9 °F 85% 30.32 in 10.0 mi North 4.6 mph - N/A   Overcast
1:54 AM 39.0 °F 34.8 °F 37.0 °F 93% 30.32 in 10.0 mi NNE 5.8 mph - N/A   Clear
2:54 AM 39.0 °F 36.8 °F 37.0 °F 93% 30.33 in 10.0 mi NE 3.5 mph - N/A   Clear
3:54 AM 36.0 °F 31.1 °F 35.1 °F 97% 30.34 in 10.0 mi North 5.8 mph - N/A   Clear
4:54 AM 36.0 °F 31.1 °F 34.0 °F 93% 30.35 in 10.0 mi NNE 5.8 mph - N/A   Clear
5:54 AM 36.0 °F 32.1 °F 33.1 °F 89% 30.37 in 10.0 mi North 4.6 mph - N/A   Clear
6:54 AM 33.1 °F 28.7 °F 33.1 °F 100% 30.40 in 6.0 mi North 4.6 mph - N/A   Clear
7:54 AM 37.0 °F 34.5 °F 35.1 °F 93% 30.42 in 10.0 mi North 3.5 mph - N/A   Clear
9:54 AM 50.0 °F - 37.9 °F 63% 30.42 in 10.0 mi NE 3.5 mph - N/A   Clear
10:54 AM 57.0 °F - 35.1 °F 44% 30.40 in 10.0 mi Calm Calm - N/A   Clear
11:54 AM 63.0 °F - 37.9 °F 40% 30.36 in 10.0 mi Variable 3.5 mph - N/A   Clear
1:54 PM 69.1 °F - 36.0 °F 30% 30.30 in 10.0 mi SW 3.5 mph - N/A   Clear
2:54 PM 68.0 °F - 35.1 °F 30% 30.30 in 10.0 mi Calm Calm - N/A   Clear
3:54 PM 64.0 °F - 36.0 °F 35% 30.31 in 10.0 mi SE 6.9 mph - N/A   Clear
4:54 PM 60.1 °F - 36.0 °F 41% 30.33 in 10.0 mi Calm Calm - N/A   Clear
5:54 PM 57.9 °F - 35.1 °F 42% 30.35 in 10.0 mi ESE 3.5 mph - N/A   Clear
6:54 PM 55.0 °F - 37.0 °F 51% 30.36 in 10.0 mi Calm Calm - N/A   Clear
7:54 PM 53.1 °F - 37.0 °F 55% 30.35 in 10.0 mi Calm Calm - N/A   Clear
8:54 PM 52.0 °F - 36.0 °F 54% 30.34 in 10.0 mi Calm Calm - N/A   Clear
9:54 PM 52.0 °F - 37.0 °F 57% 30.33 in 10.0 mi Calm Calm - N/A   Clear
10:54 PM 54.0 °F - 37.0 °F 53% 30.31 in 10.0 mi South 4.6 mph - N/A   Clear
11:54 PM 52.0 °F - 36.0 °F 54% 30.30 in 10.0 mi SE 3.5 mph - N/A   Clear